Kremmling, CO

1:55 AM MDT on May 25, 2017 (GMT -0600)
Kremmling

Weather History for K20V - March, 2014

Change the Weather History Date:

Tuesday, March 11, 2014

  Actual Average Record
Temperature  
Mean Temperature 30 °F -  
Max Temperature 42 °F - 61 °F (2017)
Min Temperature 19 °F - 0 °F (2008)
Degree Days  
Heating Degree Days 34    
Month to date heating degree days  
Cooling Degree Days 0    
Month to date cooling degree days  
Moisture  
Dew Point 16 °F    
Average Humidity 54    
Maximum Humidity 75    
Minimum Humidity 25    
Precipitation  
Precipitation 0.00 in - 0.00 in (2017)
Sea Level Pressure  
Sea Level Pressure 30.02 in    
Wind  
Wind Speed 9 mph (NNW)    
Max Wind Speed 20 mph    
Max Gust Speed 29 mph    
Visibility 10 miles    
Events Snow    
T = Trace of Precipitation, MM = Missing Value Source: NWS Daily Summary

Daily Weather History Graph

Daily Weather History Graph

Search for Another Location

Airport or City:

Trip Planner

Search our weather history database for the weather conditions in past years. The results will help you decide how hot, cold, wet, or windy it might be!

Date:

Astronomy

Mar. 11, 2014 Rise Set
Actual Time 7:23 AM MDT 7:08 PM MDT
Civil Twilight 6:56 AM MDT 7:35 PM MDT
Nautical Twilight 6:24 AM MDT 8:06 PM MDT
Astronomical Twilight 5:53 AM MDT 8:38 PM MDT
Moon 2:47 PM MDT (3/11) 4:18 AM MDT (3/11)
Length of Visible Light 12h 38m
Length of Day
11h 44m
Waxing Gibbous, 78% of the Moon is Illuminated
Mar 11
Waxing Gibbous
Mar 16
Full
Mar 23
Last Quarter
Mar 30
New
Apr 7
First Quarter

Hourly Weather History & Observations

Time (MDT) Temp. Windchill Dew Point Humidity Pressure Visibility Wind Dir Wind Speed Gust Speed Precip Events Conditions
12:16 AM 42.8 °F 37.5 °F 10.4 °F 27% 29.81 in 10.0 mi SW 9.2 mph - N/A   Overcast
12:36 AM 42.8 °F 38.6 °F 10.4 °F 27% 29.79 in 10.0 mi SSW 6.9 mph - N/A   Overcast
12:56 AM 42.8 °F 38.0 °F 10.4 °F 27% 29.78 in 10.0 mi SSW 8.1 mph - N/A   Overcast
1:16 AM 42.8 °F 37.5 °F 8.6 °F 25% 29.78 in 10.0 mi SW 9.2 mph - N/A   Mostly Cloudy
1:35 AM 41.0 °F 36.4 °F 12.2 °F 31% 29.77 in 10.0 mi WSW 6.9 mph - N/A   Scattered Clouds
1:56 AM 42.8 °F 34.8 °F 12.2 °F 29% 29.79 in 10.0 mi NW 17.3 mph 24.2 mph N/A   Overcast
2:15 AM 37.4 °F 27.2 °F 21.2 °F 52% 29.81 in 10.0 mi NW 19.6 mph 26.5 mph N/A   Overcast
2:36 AM 37.4 °F 27.2 °F 23.0 °F 56% 29.80 in 10.0 mi NNW 19.6 mph 28.8 mph N/A   Overcast
2:56 AM 35.6 °F 27.1 °F 23.0 °F 60% 29.82 in 10.0 mi NW 12.7 mph 23.0 mph N/A   Overcast
3:16 AM 35.6 °F 31.7 °F 24.8 °F 65% 29.82 in 10.0 mi SW 4.6 mph - N/A   Overcast
3:36 AM 35.6 °F 29.2 °F 23.0 °F 60% 29.82 in 10.0 mi WSW 8.1 mph - N/A   Overcast
3:56 AM 35.6 °F 30.7 °F 23.0 °F 60% 29.81 in 10.0 mi West 5.8 mph 17.3 mph N/A   Overcast
4:16 AM 35.6 °F 29.9 °F 23.0 °F 60% 29.82 in 10.0 mi North 6.9 mph - N/A   Overcast
4:35 AM 33.8 °F 29.6 °F 21.2 °F 60% 29.82 in 10.0 mi NW 4.6 mph - N/A   Overcast
4:56 AM 32.0 °F 23.6 °F 21.2 °F 64% 29.83 in 10.0 mi NNE 10.4 mph - N/A   Overcast
5:16 AM 32.0 °F 27.5 °F 21.2 °F 64% 29.84 in 10.0 mi NNW 4.6 mph - N/A   Overcast
5:35 AM 32.0 °F 25.6 °F 19.4 °F 60% 29.84 in 10.0 mi NNW 6.9 mph - N/A   Overcast
5:56 AM 32.0 °F 27.5 °F 21.2 °F 64% 29.85 in 10.0 mi NNE 4.6 mph - N/A   Overcast
6:15 AM 32.0 °F 27.5 °F 19.4 °F 60% 29.86 in 10.0 mi NNW 4.6 mph - N/A   Overcast
6:36 AM 32.0 °F 26.4 °F 21.2 °F 64% 29.86 in 10.0 mi NNE 5.8 mph - N/A   Overcast
6:56 AM 30.2 °F 25.4 °F 21.2 °F 69% 29.87 in 10.0 mi North 4.6 mph - N/A   Overcast
7:16 AM 32.0 °F - 21.2 °F 64% 29.88 in 10.0 mi Calm Calm - N/A   Overcast
7:36 AM 30.2 °F 21.3 °F 21.2 °F 69% 29.90 in 10.0 mi NW 10.4 mph - N/A   Overcast
7:56 AM 30.2 °F 20.8 °F 21.2 °F 69% 29.91 in 10.0 mi NNW 11.5 mph 21.9 mph N/A   Overcast
8:16 AM 30.2 °F 21.9 °F 21.2 °F 69% 29.92 in 10.0 mi NNW 9.2 mph - N/A   Overcast
8:36 AM 30.2 °F 24.3 °F 19.4 °F 64% 29.93 in 10.0 mi NW 5.8 mph - N/A   Overcast
8:56 AM 30.2 °F 24.3 °F 17.6 °F 60% 29.94 in 10.0 mi NW 5.8 mph - N/A   Overcast
9:16 AM 32.0 °F 27.5 °F 17.6 °F 55% 29.94 in 10.0 mi NNW 4.6 mph - N/A   Overcast
9:36 AM 32.0 °F 28.7 °F 17.6 °F 55% 29.94 in 10.0 mi NNW 3.5 mph - N/A   Overcast
9:56 AM 32.0 °F 25.6 °F 19.4 °F 60% 29.96 in 10.0 mi West 6.9 mph - N/A   Overcast
10:16 AM 32.0 °F - 15.8 °F 51% 29.97 in 10.0 mi Calm Calm - N/A   Overcast
10:36 AM 32.0 °F 28.7 °F 14.0 °F 48% 29.98 in 10.0 mi WNW 3.5 mph - N/A   Overcast
10:55 AM 32.0 °F 27.5 °F 17.6 °F 55% 30.00 in 10.0 mi North 4.6 mph - N/A   Overcast
11:16 AM 32.0 °F - 19.4 °F 60% 30.01 in 7.0 mi Calm Calm - N/A   Overcast
11:36 AM 32.0 °F - 19.4 °F 60% 30.02 in 10.0 mi Calm Calm - N/A   Mostly Cloudy
11:56 AM 33.8 °F 30.8 °F 19.4 °F 56% 30.01 in 10.0 mi NW 3.5 mph - N/A   Mostly Cloudy
12:16 PM 33.8 °F 28.6 °F 19.4 °F 56% 30.01 in 10.0 mi WNW 5.8 mph - N/A   Overcast
12:36 PM 33.8 °F 27.7 °F 21.2 °F 60% 30.01 in 10.0 mi WNW 6.9 mph - N/A   Overcast
12:56 PM 33.8 °F 26.4 °F 19.4 °F 56% 30.03 in 10.0 mi North 9.2 mph - N/A   Overcast
1:16 PM 30.2 °F 21.3 °F 23.0 °F 75% 30.04 in 2.5 mi NNW 10.4 mph 17.3 mph N/A Snow Light Snow
1:36 PM 32.0 °F 22.1 °F 21.2 °F 64% 30.06 in 10.0 mi NW 13.8 mph 20.7 mph N/A   Overcast
1:56 PM 32.0 °F 22.1 °F 19.4 °F 60% 30.06 in 10.0 mi NW 13.8 mph 21.9 mph N/A   Overcast
2:16 PM 32.0 °F 21.6 °F 19.4 °F 60% 30.06 in 10.0 mi NW 15.0 mph 21.9 mph N/A   Mostly Cloudy
2:36 PM 33.8 °F 23.5 °F 17.6 °F 52% 30.06 in 10.0 mi NW 16.1 mph - N/A   Scattered Clouds
2:55 PM 35.6 °F 24.8 °F 17.6 °F 48% 30.07 in 10.0 mi NW 19.6 mph 24.2 mph N/A   Mostly Cloudy
3:16 PM 33.8 °F 22.8 °F 15.8 °F 48% 30.08 in 10.0 mi NW 18.4 mph 24.2 mph N/A   Mostly Cloudy
3:35 PM 33.8 °F 24.8 °F 14.0 °F 44% 30.09 in 10.0 mi NW 12.7 mph 23.0 mph N/A   Overcast
3:55 PM 33.8 °F 25.3 °F 14.0 °F 44% 30.10 in 10.0 mi NNW 11.5 mph 21.9 mph N/A   Overcast
4:16 PM 35.6 °F 25.5 °F 12.2 °F 38% 30.12 in 10.0 mi North 17.3 mph 25.3 mph N/A   Mostly Cloudy
4:35 PM 33.8 °F 23.2 °F 10.4 °F 38% 30.12 in 10.0 mi NNE 17.3 mph 26.5 mph N/A   Mostly Cloudy
4:56 PM 32.0 °F 21.2 °F 10.4 °F 41% 30.14 in 10.0 mi North 16.1 mph 25.3 mph N/A   Overcast
5:16 PM 32.0 °F 22.5 °F 10.4 °F 41% 30.16 in 10.0 mi North 12.7 mph 18.4 mph N/A   Overcast
5:36 PM 32.0 °F 22.1 °F 10.4 °F 41% 30.16 in 10.0 mi North 13.8 mph 18.4 mph N/A   Mostly Cloudy
5:56 PM 32.0 °F 22.5 °F 10.4 °F 41% 30.17 in 10.0 mi North 12.7 mph 17.3 mph N/A   Scattered Clouds
6:16 PM 30.2 °F 21.3 °F 8.6 °F 40% 30.18 in 10.0 mi North 10.4 mph 18.4 mph N/A   Scattered Clouds
6:36 PM 32.0 °F 23.6 °F 8.6 °F 38% 30.19 in 10.0 mi NNW 10.4 mph 17.3 mph N/A   Scattered Clouds
6:56 PM 30.2 °F 21.3 °F 12.2 °F 47% 30.21 in 10.0 mi NW 10.4 mph 18.4 mph N/A   Mostly Cloudy
7:15 PM 28.4 °F 21.2 °F 12.2 °F 51% 30.22 in 10.0 mi NW 6.9 mph - N/A   Scattered Clouds
7:36 PM 28.4 °F 22.2 °F 12.2 °F 51% 30.24 in 10.0 mi NNW 5.8 mph - N/A   Clear
7:56 PM 26.6 °F 22.6 °F 10.4 °F 51% 30.25 in 10.0 mi NW 3.5 mph - N/A   Clear
8:15 PM 26.6 °F 21.2 °F 10.4 °F 51% 30.25 in 10.0 mi NNW 4.6 mph - N/A   Mostly Cloudy
8:36 PM 24.8 °F 15.3 °F 8.6 °F 50% 30.26 in 10.0 mi NNW 9.2 mph - N/A   Scattered Clouds
8:55 PM 24.8 °F 16.9 °F 10.4 °F 54% 30.27 in 10.0 mi North 6.9 mph - N/A   Clear
9:16 PM 23.0 °F 15.8 °F 10.4 °F 59% 30.28 in 10.0 mi NNE 5.8 mph - N/A   Clear
9:36 PM 23.0 °F 17.0 °F 10.4 °F 59% 30.29 in 10.0 mi NNW 4.6 mph - N/A   Clear
9:56 PM 23.0 °F 17.0 °F 10.4 °F 59% 30.29 in 10.0 mi North 4.6 mph - N/A   Clear
10:16 PM 23.0 °F 17.0 °F 10.4 °F 59% 30.29 in 10.0 mi NNW 4.6 mph - N/A   Clear
10:35 PM 23.0 °F 18.4 °F 8.6 °F 54% 30.30 in 10.0 mi North 3.5 mph - N/A   Clear
10:56 PM 21.2 °F - 10.4 °F 63% 30.30 in 10.0 mi Calm Calm - N/A   Clear
11:16 PM 21.2 °F - 10.4 °F 63% 30.29 in 10.0 mi Calm Calm - N/A   Clear
11:36 PM 19.4 °F - 10.4 °F 68% 30.30 in 10.0 mi Calm Calm - N/A   Clear
11:56 PM 19.4 °F - 12.2 °F 74% 30.31 in 10.0 mi Calm Calm - N/A   Clear